Theta_e
284 284 284 284 283 282 283 285 282 285 283 285 285 285 285 285 284 283 284 283 283 283 281 280 279 279 280 280 280 280 279 279 279 279 277 276 275 274 273 273 272 272 272 271
281 282 282 281 283 283 284 284 284 283 282 286 287 285 284 284 284 283 283 284 284 283 282 280 280 280 280 279 279 279 279 279 278 277 275 274 273 272 272 271 270 270 270 269
283 279 281 280 281 282 282 282 285 280 287 281 282 283 283 283 284 283 282 282 283 283 282 282 280 281 280 279 278 277 276 275 274 274 273 272 271 270 270 269 269 268 268 268
272 277 274 278 275 281 283 283 281 279 276 281 283 281 282 281 281 280 281 282 283 284 282 281 281 279 279 278 277 276 275 273 272 272 270 269 269 268 268 267 267 266 266 266
274 274 278 276 275 278 280 279 280 283 281 278 278 277 277 279 280 281 280 281 281 282 282 279 279 279 277 276 276 275 274 273 272 271 268 268 266 266 266 266 265 264 266 265
273 273 272 276 276 277 279 274 274 281 278 274 275 272 275 278 279 279 279 279 279 279 278 277 277 277 275 274 273 274 274 273 271 269 265 265 266 265 265 264 265 265 264 264
275 274 276 278 276 278 274 278 276 275 276 276 275 277 278 278 277 278 279 278 278 278 278 278 276 274 274 273 273 273 271 270 268 267 265 264 263 264 262 261 263 260 261 262
275 273 273 277 276 276 280 277 278 277 277 277 278 278 278 278 278 278 278 278 279 277 277 277 275 274 273 272 272 270 268 267 265 263 265 263 259 260 259 259 259 258 258 260
278 277 277 279 279 280 280 279 278 278 278 278 277 277 278 278 277 277 277 277 277 276 276 275 273 273 273 272 269 267 265 263 261 261 262 261 258 259 261 259 258 259 261 261
275 275 275 278 279 279 279 279 279 279 278 277 277 277 277 277 277 276 275 275 274 272 272 273 270 271 273 268 267 263 261 261 261 260 261 260 263 262 260 259 259 259 259 260
272 274 276 277 278 279 279 279 278 278 278 278 277 276 276 276 275 275 275 273 271 273 273 274 269 268 266 266 264 262 261 262 261 260 260 261 262 262 262 262 261 257 259 261
272 277 277 278 280 280 279 279 278 277 276 276 277 277 276 275 275 274 273 270 270 271 270 269 265 264 263 262 263 262 261 261 261 261 261 261 261 261 265 268 269 271 272 272
277 279 279 279 279 279 279 278 278 277 277 276 276 275 273 274 272 272 269 268 269 270 267 264 263 263 262 261 261 261 259 261 261 261 261 260 259 258 258 260 265 267 269 271
279 278 276 278 278 279 278 278 276 274 274 275 274 270 270 270 266 266 266 265 263 262 260 259 260 261 261 259 257 256 256 259 259 259 259 258 258 258 257 255 255 256 261 264
278 279 279 278 276 275 274 272 271 273 272 270 267 269 267 266 264 264 261 260 261 259 257 258 257 255 253 254 255 253 255 256 257 256 256 257 257 257 256 255 255 254 255 259
276 276 274 274 275 272 271 268 271 273 270 268 267 265 265 264 261 257 256 254 258 257 253 253 253 253 251 252 252 251 252 257 257 255 255 255 255 255 255 254 254 254 254 255
270 270 265 268 272 272 272 273 274 273 268 268 267 262 260 257 254 252 247 247 250 251 249 251 252 249 248 249 250 251 251 251 254 251 250 251 253 253 254 253 253 253 254 256
276 275 273 273 274 273 271 271 270 267 265 263 261 259 257 256 255 251 247 245 248 249 247 247 247 246 245 245 246 249 248 250 248 248 251 252 252 253 253 252 253 253 254 256
270 274 270 270 267 267 265 263 261 260 260 259 258 256 255 253 252 248 244 247 246 248 249 244 257 247 246 246 247 249 250 248 247 248 251 251 251 251 251 251 251 252 253 254
261 261 263 260 258 257 257 256 256 255 253 254 253 252 249 244 245 245 242 247 246 248 244 243 243 245 245 246 251 249 247 248 250 249 249 249 250 252 251 251 251 252 252 252
255 257 258 257 254 253 253 253 254 253 251 252 253 251 249 242 241 243 249 251 249 244 244 248 245 247 246 248 248 245 245 246 248 250 248 249 249 250 252 251 252 253 254 253
250 252 254 253 252 249 248 250 251 250 250 250 249 248 247 247 244 244 246 251 249 251 248 247 247 248 248 252 249 248 248 250 250 253 252 253 252 253 254 254 254 254 254 253
249 250 252 251 250 247 248 248 250 250 249 249 249 248 251 253 253 254 252 248 247 249 249 249 251 255 257 253 251 251 251 251 251 254 255 255 255 255 255 254 254 254 253 251
245 247 246 246 246 249 249 246 246 246 247 249 250 252 254 254 252 249 249 250 251 251 248 250 253 262 256 249 249 249 249 250 254 255 255 256 255 255 254 253 253 252 250 250
246 245 245 247 249 249 247 246 251 252 253 252 251 251 251 252 251 250 247 250 252 251 250 252 259 259 249 247 248 249 251 253 254 254 255 254 254 253 253 252 251 250 250 250
246 247 248 249 251 252 252 253 252 253 254 253 251 249 246 247 249 249 249 250 249 251 249 249 248 249 249 249 249 250 252 253 254 254 254 254 253 253 252 251 250 250 250 249
250 252 251 251 251 249 249 249 249 249 249 247 247 245 245 246 246 249 249 249 249 249 249 247 250 251 249 250 251 252 253 253 254 254 253 253 253 252 252 251 251 251 250 249
Wind_Speed
4 5 7 7 9 14 15 16 11 12 14 8 13 13 13 9 7 9 10 9 8 10 10 10 10 10 9 9 9 8 8 8 7 6 6 5 4 3 3 3 3 3 4 4
5 1 1 4 10 12 14 10 11 5 11 6 7 6 6 9 9 9 8 8 10 9 8 11 13 12 10 10 10 8 9 9 7 6 6 5 4 3 3 3 1 2 3 4
10 3 4 8 12 15 6 6 11 11 17 7 5 7 8 9 10 9 7 8 9 9 9 9 11 11 12 11 8 9 7 6 7 7 6 5 4 3 2 2 2 3 3 5
4 2 9 1 4 1 11 6 5 2 4 8 6 5 4 6 8 8 8 8 7 6 6 7 6 7 6 7 8 8 8 8 7 7 5 5 4 2 1 1 2 3 4 5
6 5 6 3 6 10 10 10 11 12 6 5 4 4 4 4 5 6 7 7 7 6 6 5 7 6 6 6 6 7 9 9 8 7 6 5 4 3 2 1 2 2 3 4
4 6 10 4 2 3 5 6 8 10 7 8 7 3 5 6 5 8 7 5 7 7 5 6 6 7 7 7 7 10 9 9 8 7 6 5 4 4 3 1 3 3 4 5
5 4 6 5 4 4 6 6 4 6 5 8 6 5 5 6 5 5 7 9 5 7 8 9 7 7 7 6 11 7 7 7 7 6 6 4 4 2 2 2 2 3 6 6
3 3 8 6 5 10 5 2 5 5 7 8 5 6 6 7 6 7 9 8 9 7 8 7 6 7 7 10 6 8 8 8 7 6 4 4 4 2 1 1 3 4 4 6
10 6 0 14 3 5 4 7 5 6 6 8 9 7 6 4 6 7 7 8 6 8 8 6 7 9 8 6 9 9 8 7 5 5 4 5 4 3 2 1 2 4 5 6
4 3 3 11 2 3 4 6 6 5 7 8 7 6 6 4 6 6 5 8 6 6 7 8 7 8 8 8 9 9 7 7 6 5 4 4 3 3 2 2 3 4 4 6
1 1 1 5 7 6 7 4 5 4 7 9 7 6 7 6 7 7 7 4 5 8 8 11 6 6 5 8 9 8 6 5 5 4 4 4 4 4 4 4 5 4 5 7
5 10 6 7 12 10 8 9 9 8 5 5 7 9 6 7 6 4 6 3 4 7 7 5 4 6 6 6 8 8 6 5 5 4 4 3 3 4 8 11 13 16 18 14
5 7 8 2 3 5 9 9 9 9 8 7 8 8 6 5 4 5 4 4 6 7 6 5 6 6 6 6 6 6 5 5 4 4 4 4 3 3 4 4 10 12 13 15
4 7 1 4 8 9 8 7 6 4 4 6 5 3 4 5 2 3 3 2 2 3 3 3 4 4 4 5 5 5 5 6 4 4 3 3 4 4 3 3 3 5 6 11
9 7 7 4 3 4 3 4 4 6 5 4 4 5 6 5 3 4 4 4 6 6 5 5 4 3 2 4 5 5 4 3 3 3 3 3 3 3 3 4 5 5 5 7
6 8 4 7 6 5 6 3 7 9 5 4 5 5 4 5 7 6 5 3 5 4 4 4 3 2 4 5 4 2 2 5 4 3 3 3 3 4 4 4 5 5 5 6
4 5 2 4 8 7 12 9 12 9 5 7 7 7 8 8 7 6 3 4 4 5 4 4 3 1 1 3 4 2 2 2 3 2 3 3 3 4 4 4 5 5 6 6
8 6 8 7 8 8 7 10 8 6 6 5 8 8 8 7 7 7 4 1 3 4 2 2 3 2 1 2 3 3 3 3 3 4 3 3 4 4 5 5 5 6 6 6
7 9 6 5 2 3 2 3 4 5 6 7 9 7 6 6 6 6 5 6 5 4 1 2 5 3 1 2 4 3 3 3 2 2 3 4 4 4 5 5 6 6 6 6
3 4 6 5 5 3 5 5 7 8 5 8 10 8 8 4 3 5 2 4 3 3 1 3 2 3 3 3 2 2 3 3 3 4 3 4 5 5 5 7 6 6 5 5
5 4 6 7 6 6 7 5 8 8 6 6 8 7 7 5 1 3 5 4 3 2 2 3 2 3 2 2 2 2 3 3 4 4 4 4 4 5 5 5 5 5 5 5
4 3 5 7 8 8 6 6 8 7 8 8 7 7 7 5 3 2 3 2 2 2 1 2 2 4 4 5 3 3 3 4 4 4 4 4 5 5 5 5 5 5 5 5
5 4 5 6 8 7 6 6 6 6 7 6 6 4 4 3 2 3 2 3 2 4 2 2 5 7 6 3 3 3 3 4 4 4 4 5 5 5 5 5 5 5 5 5
3 6 5 4 4 6 9 3 5 5 5 5 5 3 3 3 2 1 1 2 4 4 3 3 4 7 4 1 1 1 3 3 4 4 5 7 5 5 5 5 6 5 5 7
4 4 4 5 6 4 4 3 5 5 5 5 4 3 2 1 2 2 2 3 4 3 3 5 6 5 1 2 2 3 3 3 4 4 5 5 5 5 5 5 6 6 6 6
3 4 3 5 3 3 2 1 4 3 3 3 2 1 2 1 2 2 2 3 3 3 2 3 2 3 3 3 3 3 3 4 5 5 5 6 6 6 6 6 6 6 6 6
4 5 3 4 4 2 2 2 3 2 2 2 1 2 2 2 2 2 2 2 2 3 3 3 3 4 3 3 3 4 4 5 6 5 5 5 5 6 6 6 6 6 6 6
Wind_Direction
208 192 162 182 178 183 203 215 201 233 228 195 199 200 205 201 158 171 193 194 189 205 206 199 197 201 201 204 188 183 183 189 188 167 153 147 143 124 110 84 56 7 3 355
198 252 196 206 214 188 204 219 242 251 256 204 216 104 155 182 171 190 188 186 202 210 199 201 203 202 199 202 197 178 194 198 170 161 150 160 163 160 159 129 77 21 2 340
222 150 122 255 211 194 178 188 194 208 242 157 191 193 191 197 187 188 187 207 206 206 207 200 196 195 199 200 177 189 189 174 167 160 165 170 171 185 156 77 21 1 344 334
127 159 224 273 357 231 209 208 181 91 201 187 192 204 207 191 175 195 205 215 218 213 208 207 183 187 178 164 181 184 187 174 167 164 167 169 180 180 162 98 6 341 323 313
162 207 333 164 195 161 168 246 182 213 209 162 111 76 294 168 179 197 201 213 213 206 198 179 190 186 171 172 172 172 191 186 176 165 168 179 189 189 164 98 309 292 294 301
155 181 204 244 177 153 116 275 216 198 176 146 137 141 240 190 184 220 221 206 202 193 182 182 191 163 162 187 175 203 192 181 158 157 168 183 189 197 153 205 286 306 301 299
182 218 284 213 191 168 138 240 167 167 127 145 184 194 175 157 202 212 202 206 192 182 191 203 163 155 187 167 207 194 143 142 149 159 171 174 184 177 159 280 303 291 302 301
123 195 257 147 71 173 183 30 148 162 173 179 187 168 173 182 206 195 209 195 194 189 212 203 166 165 191 204 176 150 148 153 157 159 183 165 171 194 233 271 300 306 293 291
188 202 94 182 130 215 156 138 179 156 187 182 177 198 171 219 234 228 221 215 198 203 218 202 185 185 196 210 153 149 148 153 163 168 178 173 179 211 244 209 283 296 299 305
104 205 203 202 199 172 186 150 164 183 165 167 187 185 207 231 249 245 225 223 202 183 224 239 201 199 210 151 149 146 155 167 171 181 186 194 203 207 214 252 263 272 283 282
54 358 16 255 234 197 221 160 157 167 181 197 189 212 212 227 229 232 232 221 169 198 223 242 177 196 164 152 146 157 163 169 179 182 196 204 220 234 238 225 210 220 237 246
199 194 170 202 209 202 202 203 191 190 210 211 185 216 204 234 223 212 231 203 204 224 227 237 164 160 158 147 153 151 166 176 188 190 200 207 224 264 267 271 276 278 282 280
187 175 195 146 182 148 207 206 203 194 207 181 206 206 187 222 215 213 212 208 215 226 217 176 165 163 157 154 147 162 165 173 179 189 204 206 219 232 273 302 304 296 288 287
148 110 225 167 223 203 207 197 167 187 200 204 197 171 180 211 147 204 230 265 69 95 73 81 87 90 118 133 139 160 185 193 191 194 198 196 207 226 226 246 276 301 297 298
205 207 197 183 193 180 155 123 173 215 210 229 192 199 176 190 192 155 103 89 90 94 85 104 121 132 153 145 159 166 175 204 202 202 209 213 215 226 231 242 251 246 287 293
185 208 205 212 225 170 169 165 200 228 202 219 205 191 177 123 111 107 92 76 122 143 157 122 115 201 164 155 159 175 223 234 200 200 199 214 230 231 245 245 251 254 257 263
126 272 89 264 231 202 204 206 210 224 182 188 193 138 121 112 100 101 76 32 73 106 130 150 192 81 105 163 174 199 195 213 224 215 223 220 224 235 243 241 250 250 256 260
214 235 184 187 200 218 221 220 213 190 186 153 125 126 132 146 151 153 145 49 61 59 32 280 259 254 239 211 199 197 197 224 203 214 220 226 233 233 239 242 248 254 268 270
198 231 206 210 171 184 176 153 141 122 122 127 127 130 124 114 127 134 136 106 88 92 267 315 336 43 326 234 186 192 216 218 226 238 240 254 257 244 243 239 248 248 254 265
28 53 85 92 54 58 111 78 99 91 68 97 105 104 98 66 99 122 92 120 183 196 266 303 354 330 306 289 339 170 193 220 240 243 229 231 240 250 240 241 238 248 243 246
21 57 91 90 74 50 72 93 113 105 99 97 115 125 128 137 133 144 83 98 274 269 285 291 248 273 266 273 210 192 197 216 228 241 243 246 249 245 249 239 235 240 252 254
1 54 83 92 92 76 35 53 82 92 89 87 88 107 118 116 114 325 254 153 221 276 302 299 279 252 243 241 216 214 221 221 224 234 236 238 240 252 253 251 251 253 253 257
41 50 79 86 102 109 77 62 73 89 98 101 114 114 98 122 144 135 99 263 264 289 267 277 271 271 263 236 224 221 231 232 229 241 247 248 250 250 254 256 258 258 263 260
51 49 45 49 66 92 92 43 73 77 94 94 91 110 126 132 93 289 316 263 272 282 267 267 290 307 69 86 60 260 246 241 255 256 261 264 260 256 254 256 261 260 257 260
30 77 78 63 80 89 102 138 111 103 98 88 92 96 91 49 118 207 240 285 298 314 292 301 310 330 287 250 243 245 237 242 254 254 260 260 260 256 252 254 254 257 254 252
21 51 57 56 54 55 71 63 98 99 113 107 83 46 329 290 282 286 288 279 281 299 291 283 284 273 265 257 250 249 251 258 265 267 262 259 257 257 261 258 256 253 253 256
42 67 66 70 48 47 55 69 99 80 72 83 110 295 307 311 301 288 294 300 301 290 283 284 279 278 266 256 263 257 258 260 262 265 262 264 264 261 260 260 261 262 261 258